Le nostre stazioni meteo in Italia

Pubblicità
Il mio iltempo24.it
Palermo/Punta Raisi, Italia (16405): Temperatura & dewpoint: 21.02.2017 23:00:00 - 27.02.2017 23:00:00 (CET)Palermo/Punta Raisi, Italia (16405): velocità del vento: 21.02.2017 23:00:00 - 27.02.2017 23:00:00 (CET)Palermo/Punta Raisi, Italia (16405): direzione del vento: 21.02.2017 23:00:00 - 27.02.2017 23:00:00 (CET)Palermo/Punta Raisi, Italia (16405): reduced air pressure: 21.02.2017 23:00:00 - 27.02.2017 23:00:00 (CET)Palermo/Punta Raisi, Italia (16405): visibility: 21.02.2017 23:00:00 - 27.02.2017 23:00:00 (CET)
Data & Tempo tt [°C] td [°C] ff [km/h] ff [kn] dd ppp [hPa] vv [km]
27.02.2017 23:00:00 12,0 11,0 5 3 S - 10
27.02.2017 22:00:00 12,0 10,0 9 5 S - 10
27.02.2017 21:00:00 15,0 12,0 4 2 O - 10
27.02.2017 20:00:00 15,0 13,0 11 6 NO - 10
27.02.2017 19:00:00 14,0 13,0 21 11 E - 10
27.02.2017 18:00:00 - - - - - - -
27.02.2017 17:00:00 16,0 12,0 28 15 ENE - 10
27.02.2017 16:00:00 16,0 13,0 26 14 NE - 10
27.02.2017 15:00:00 16,0 13,0 22 12 NE - 10
27.02.2017 14:00:00 15,0 13,0 22 12 NNE - 10
27.02.2017 13:00:00 15,0 13,0 21 11 NNE - 10
27.02.2017 12:00:00 15,0 13,0 18 10 NNE - 10
27.02.2017 11:00:00 - - - - - - -
27.02.2017 10:00:00 15,5 13,2 18 10 ENE 1000,0 10
27.02.2017 09:00:00 15,0 13,0 13 7 ENE - 10
27.02.2017 08:00:00 15,0 13,0 21 11 NNE - 10
27.02.2017 07:00:00 14,5 12,8 29 16 NNE 1000,0 10
27.02.2017 06:00:00 14,0 13,0 24 13 NE - 10
27.02.2017 05:00:00 15,0 13,0 26 14 NE - 10
27.02.2017 04:00:00 14,1 12,4 15 8 NE 1000,0 10
27.02.2017 03:00:00 14,0 12,0 15 8 ENE - 10
27.02.2017 02:00:00 15,0 13,0 26 14 N - 8
27.02.2017 01:00:00 14,8 12,6 28 15 N 1000,0 10
27.02.2017 00:00:00 15,0 13,0 26 14 NNE - 10
26.02.2017 23:00:00 15,0 12,0 22 12 NE - 10
26.02.2017 22:00:00 14,4 11,3 15 8 ENE 1000,0 10
26.02.2017 21:00:00 14,0 11,0 18 10 ENE - 10
26.02.2017 20:00:00 13,0 11,0 16 9 ENE - 10
26.02.2017 19:00:00 14,2 11,3 22 12 ENE 1000,0 10
26.02.2017 18:00:00 15,0 12,0 26 14 NE - 10
26.02.2017 17:00:00 15,0 12,0 28 15 NE - 10
26.02.2017 16:00:00 15,5 10,8 26 14 NE 1000,0 10
26.02.2017 15:00:00 16,0 12,0 28 15 NE - 10
26.02.2017 14:00:00 15,0 12,0 29 16 NE - 10
26.02.2017 13:00:00 15,3 11,6 26 14 NE 1000,0 10
26.02.2017 12:00:00 15,0 11,0 22 12 NE - 10
26.02.2017 11:00:00 15,0 11,0 13 7 NE - 10
26.02.2017 10:00:00 13,7 10,0 9 5 SO 1000,0 10
26.02.2017 09:00:00 13,0 10,0 4 2 NE - 10
26.02.2017 08:00:00 11,0 9,0 5 3 ENE - 10
26.02.2017 07:00:00 11,1 8,2 16 9 ENE 1000,0 10
26.02.2017 06:00:00 12,0 8,0 18 10 ENE - 10
26.02.2017 05:00:00 - - - - - - -
26.02.2017 04:00:00 9,8 7,3 22 12 SE 1000,0 10
26.02.2017 03:00:00 11,0 7,0 2 1 ENE - 10
26.02.2017 02:00:00 10,0 7,0 4 2 ESE - 10
26.02.2017 01:00:00 11,1 6,6 4 2 SE 1000,0 10
26.02.2017 00:00:00 10,0 7,0 13 7 SSE - 10
25.02.2017 23:00:00 11,0 7,0 9 5 SE - 10
25.02.2017 22:00:00 11,9 7,2 9 5 S 1000,0 10
25.02.2017 21:00:00 14,0 8,0 11 6 ONO - 10
25.02.2017 20:00:00 14,0 8,0 22 12 ONO - 10
25.02.2017 19:00:00 14,0 9,0 26 14 ONO - 10
25.02.2017 18:00:00 14,0 10,0 28 15 O - 10
25.02.2017 17:00:00 14,0 9,0 31 17 ONO - 9
25.02.2017 16:00:00 14,0 10,0 34 18 ONO - 9
25.02.2017 15:00:00 14,0 10,0 28 15 O - 10
25.02.2017 14:00:00 15,0 10,0 26 14 O - 10
25.02.2017 13:00:00 15,0 12,0 28 15 O - 10
25.02.2017 12:00:00 15,0 12,0 24 13 O - 9
25.02.2017 11:00:00 16,0 13,0 16 9 OSO - 8
25.02.2017 10:00:00 16,0 12,0 21 11 OSO - 10
25.02.2017 09:00:00 17,0 12,0 22 12 SSO - 8
25.02.2017 08:00:00 16,0 12,0 21 11 SO - 8
25.02.2017 07:00:00 15,0 12,0 18 10 SSO - 8
25.02.2017 06:00:00 16,0 13,0 24 13 SO - 7
25.02.2017 05:00:00 16,0 13,0 29 16 OSO - 7
25.02.2017 04:00:00 - - - - - - -
25.02.2017 03:00:00 19,0 9,0 35 19 SSO - 7
25.02.2017 02:00:00 20,0 8,0 26 14 SO - 7
25.02.2017 01:00:00 - - - - - - -
25.02.2017 00:00:00 24,0 3,0 37 20 S - 7
24.02.2017 23:00:00 23,0 4,0 41 22 S - 7
24.02.2017 22:00:00 21,0 7,0 42 23 SO - 7
24.02.2017 21:00:00 23,0 4,0 46 25 S - 8
24.02.2017 20:00:00 22,0 4,0 29 16 S - 7
24.02.2017 19:00:00 22,0 4,0 34 18 SSO - 7
24.02.2017 18:00:00 23,0 3,0 41 22 S - 7
24.02.2017 17:00:00 23,0 5,0 29 16 S - 8
24.02.2017 16:00:00 16,0 13,0 18 10 NNE - 8
24.02.2017 15:00:00 18,0 11,0 5 3 NE - 8
24.02.2017 14:00:00 16,0 13,0 11 6 NNE - 8
24.02.2017 13:00:00 18,0 10,0 15 8 ENE - 8
24.02.2017 12:00:00 21,0 7,0 31 17 SSO - 8
24.02.2017 11:00:00 17,0 11,0 4 2 N - 10
24.02.2017 10:00:00 - - - - - - -
24.02.2017 09:00:00 - - - - - - -
24.02.2017 08:00:00 - - - - - - -
24.02.2017 07:00:00 11,5 9,2 2 1 S 1000,0 9
24.02.2017 06:00:00 12,0 10,0 8 4 NE - 9
24.02.2017 05:00:00 13,0 9,0 5 3 NNE - 10
24.02.2017 04:00:00 11,5 9,5 9 5 NE 1000,0 8
24.02.2017 03:00:00 12,0 10,0 13 7 ENE - 8
24.02.2017 02:00:00 13,0 10,0 5 3 ENE - 8
24.02.2017 01:00:00 11,4 9,8 13 7 ENE 1000,0 8
24.02.2017 00:00:00 11,0 9,0 5 3 S - 8
23.02.2017 23:00:00 12,0 11,0 4 2 ESE - 10
23.02.2017 22:00:00 12,5 10,3 9 5 ENE 1000,0 10
23.02.2017 21:00:00 13,0 10,0 5 3 SE - 10
23.02.2017 20:00:00 13,0 10,0 13 7 E - 10
23.02.2017 19:00:00 13,8 10,7 11 6 NE 1000,0 10
23.02.2017 18:00:00 15,0 11,0 13 7 NNE - 10
23.02.2017 17:00:00 15,0 11,0 13 7 N - 10
23.02.2017 16:00:00 15,4 11,4 11 6 N 1000,0 10
23.02.2017 15:00:00 16,0 11,0 13 7 NO - 10
23.02.2017 14:00:00 16,0 12,0 18 10 NO - 10
23.02.2017 13:00:00 15,6 10,9 18 10 O 1000,0 10
23.02.2017 12:00:00 16,0 11,0 18 10 OSO - 10
23.02.2017 11:00:00 18,0 10,0 8 4 S - 10
23.02.2017 10:00:00 15,5 9,5 16 9 SSO 1000,0 10
23.02.2017 09:00:00 14,0 9,0 18 10 SSO - 10
23.02.2017 08:00:00 14,0 9,0 13 7 SSO - 10
23.02.2017 07:00:00 12,9 8,6 11 6 SSO 1000,0 10
23.02.2017 06:00:00 - - - - - - -
23.02.2017 05:00:00 13,0 9,0 13 7 S - 10
23.02.2017 04:00:00 13,6 9,6 13 7 SSO 1000,0 10
23.02.2017 03:00:00 - - - - - - -
23.02.2017 02:00:00 - - - - - - -
23.02.2017 01:00:00 13,7 8,9 13 7 SSO 1000,0 10
23.02.2017 00:00:00 13,0 8,0 11 6 S - 10
22.02.2017 23:00:00 13,0 8,0 11 6 S - 10
22.02.2017 22:00:00 13,6 9,1 13 7 SSO 1000,0 10
22.02.2017 21:00:00 14,0 9,0 9 5 S - 10
22.02.2017 20:00:00 14,0 9,0 8 4 SO - 10
22.02.2017 19:00:00 13,9 8,6 5 3 ENE 1000,0 10
22.02.2017 18:00:00 14,0 9,0 5 3 NE - 10
22.02.2017 17:00:00 15,0 9,0 5 3 NE - 10
22.02.2017 16:00:00 14,9 9,6 8 4 NO 1000,0 10
22.02.2017 15:00:00 15,0 9,0 13 7 NO - 10
22.02.2017 14:00:00 16,0 8,0 9 5 ONO - 10
22.02.2017 13:00:00 15,1 7,6 11 6 O 1000,0 10
22.02.2017 12:00:00 15,0 6,0 13 7 SO - 10
22.02.2017 11:00:00 15,0 6,0 8 4 SO - 10
22.02.2017 10:00:00 14,6 7,3 13 7 SSO 1000,0 10
22.02.2017 09:00:00 13,0 7,0 11 6 S - 10
22.02.2017 08:00:00 9,0 5,0 11 6 SSO - 10
22.02.2017 07:00:00 8,9 4,3 9 5 S 1000,0 10
22.02.2017 06:00:00 - - - - - - -
22.02.2017 05:00:00 - - - - - - -
22.02.2017 04:00:00 8,2 2,9 9 5 ESE 1000,0 10
22.02.2017 03:00:00 8,0 3,0 9 5 SSE - 10
22.02.2017 02:00:00 9,0 2,0 9 5 SSE - 10
22.02.2017 01:00:00 0,0 0,0 9 5 S 1000,0 10
22.02.2017 00:00:00 8,0 3,0 8 4 SSE - 10
21.02.2017 23:00:00 10,0 5,0 4 2 E - 10

tt = Temperatura
td = dewpoint
ff = velocità del vento
dd = direzione del vento
ppp = reduced air pressure
vv = visibility

Stazioni seguenti

WeatherPro
AMSI
MeteoEarth